Time,TemperatureF,DewpointF,PressureIn,WindDirection,WindDirectionDegrees,WindSpeedMPH,WindSpeedGustMPH,Humidity,HourlyPrecipIn,Conditions,Clouds,dailyrainin,SoftwareType,DateUTC
2013-03-04 08:36:00,63.0,11.3,30.28,SSW,199,18.0,23.0,13,0.00,,,0.00,Wunderground v.1.15,2013-03-04 15:36:00,
2013-03-04 08:50:00,62.8,12.8,30.28,South,182,18.0,18.0,14,0.00,,,0.00,Wunderground v.1.15,2013-03-04 15:50:00,
2013-03-04 08:55:00,62.5,12.6,30.28,SSW,196,17.0,19.0,14,0.00,,,0.00,Wunderground v.1.15,2013-03-04 15:55:00,
2013-03-04 09:00:00,63.3,13.2,30.28,SSW,211,16.0,20.0,14,0.00,,,0.00,Wunderground v.1.15,2013-03-04 16:00:00,
2013-03-04 09:10:00,64.1,12.2,30.28,SSW,196,17.0,28.0,13,0.00,,,0.00,Wunderground v.1.15,2013-03-04 16:10:00,
2013-03-04 09:15:00,64.1,12.2,30.28,SSW,213,19.0,28.0,13,0.00,,,0.00,Wunderground v.1.15,2013-03-04 16:15:00,
2013-03-04 09:20:00,64.1,12.2,30.28,SSW,196,19.0,19.0,13,0.00,,,0.00,Wunderground v.1.15,2013-03-04 16:20:00,
2013-03-04 09:31:00,64.4,14.1,30.28,SSW,207,19.0,19.0,14,0.00,,,0.00,Wunderground v.1.15,2013-03-04 16:31:00,
2013-03-04 09:41:00,65.2,14.7,30.28,South,188,18.0,19.0,14,0.00,,,0.00,Wunderground v.1.15,2013-03-04 16:41:00,
2013-03-04 09:50:00,65.4,14.9,30.28,SSW,212,20.0,20.0,14,0.00,,,0.00,Wunderground v.1.15,2013-03-04 16:50:00,
2013-03-04 09:55:00,65.8,16.8,30.28,SSW,198,19.0,20.0,15,0.00,,,0.00,Wunderground v.1.15,2013-03-04 16:55:00,
2013-03-04 10:05:00,65.7,18.2,30.28,South,183,19.0,19.0,16,0.00,,,0.00,Wunderground v.1.15,2013-03-04 17:05:00,
2013-03-04 10:10:00,65.8,18.3,30.28,SW,225,19.0,21.0,16,0.00,,,0.00,Wunderground v.1.15,2013-03-04 17:10:00,
2013-03-04 10:15:00,66.3,18.7,30.28,SSW,196,18.0,21.0,16,0.00,,,0.00,Wunderground v.1.15,2013-03-04 17:15:00,
2013-03-04 10:25:00,67.1,20.8,30.28,SSW,199,16.0,18.0,17,0.00,,,0.00,Wunderground v.1.15,2013-03-04 17:25:00,
2013-03-04 10:30:00,66.8,21.9,30.28,SSW,195,15.0,15.0,18,0.00,,,0.00,Wunderground v.1.15,2013-03-04 17:30:00,
2013-03-04 10:35:00,67.1,22.1,30.28,SW,216,17.0,18.0,18,0.00,,,0.00,Wunderground v.1.15,2013-03-04 17:35:00,
2013-03-04 10:40:00,67.2,20.9,30.28,SSW,202,17.0,23.0,17,0.00,,,0.00,Wunderground v.1.15,2013-03-04 17:40:00,
2013-03-04 10:45:00,67.7,22.6,30.28,SSW,213,18.0,23.0,18,0.00,,,0.00,Wunderground v.1.15,2013-03-04 17:45:00,
2013-03-04 10:50:00,67.4,23.7,30.28,SSW,206,18.0,18.0,19,0.00,,,0.00,Wunderground v.1.15,2013-03-04 17:50:00,
2013-03-04 10:55:00,67.7,23.9,30.28,SW,217,21.0,21.0,19,0.00,,,0.00,Wunderground v.1.15,2013-03-04 17:55:00,
2013-03-04 11:00:00,67.6,23.8,30.28,SSW,207,22.0,22.0,19,0.00,,,0.00,Wunderground v.1.15,2013-03-04 18:00:00,
2013-03-04 11:10:00,67.5,22.5,30.28,SSW,211,23.0,23.0,18,0.00,,,0.00,Wunderground v.1.15,2013-03-04 18:10:00,
2013-03-04 11:15:00,67.4,21.0,30.28,SW,229,21.0,24.0,17,0.00,,,0.00,Wunderground v.1.15,2013-03-04 18:15:00,
2013-03-04 11:25:00,67.0,20.7,30.28,WSW,242,16.0,17.0,17,0.00,,,0.00,Wunderground v.1.15,2013-03-04 18:25:00,
2013-03-04 11:30:00,66.6,19.0,30.28,WSW,248,17.0,21.0,16,0.00,,,0.00,Wunderground v.1.15,2013-03-04 18:30:00,
2013-03-04 11:35:00,66.6,17.4,30.28,West,267,17.0,21.0,15,0.00,,,0.00,Wunderground v.1.15,2013-03-04 18:35:00,
2013-03-04 11:40:00,67.0,17.8,30.28,SW,233,19.0,21.0,15,0.00,,,0.00,Wunderground v.1.15,2013-03-04 18:40:00,
2013-03-04 11:45:00,66.7,17.5,30.28,WSW,244,20.0,21.0,15,0.00,,,0.00,Wunderground v.1.15,2013-03-04 18:45:00,
2013-03-04 11:50:00,66.7,20.5,30.28,SW,221,18.0,21.0,17,0.00,,,0.00,Wunderground v.1.15,2013-03-04 18:50:00,
2013-03-04 11:55:00,66.6,17.4,30.28,SW,234,19.0,26.0,15,0.00,,,0.00,Wunderground v.1.15,2013-03-04 18:55:00,
2013-03-04 12:00:00,66.6,17.4,30.28,WSW,252,21.0,21.0,15,0.00,,,0.00,Wunderground v.1.15,2013-03-04 19:00:00,
2013-03-04 12:10:00,66.3,18.7,30.28,SW,226,21.0,21.0,16,0.00,,,0.00,Wunderground v.1.15,2013-03-04 19:10:00,
2013-03-04 12:15:00,66.3,18.7,30.28,WSW,242,21.0,21.0,16,0.00,,,0.00,Wunderground v.1.15,2013-03-04 19:15:00,
2013-03-04 12:20:00,66.8,19.1,30.28,SW,223,20.0,20.0,16,0.00,,,0.00,Wunderground v.1.15,2013-03-04 19:20:00,
2013-03-04 12:25:00,66.6,19.0,30.28,WSW,237,20.0,25.0,16,0.00,,,0.00,Wunderground v.1.15,2013-03-04 19:25:00,
2013-03-04 12:30:00,66.2,20.0,30.28,WSW,246,22.0,23.0,17,0.00,,,0.00,Wunderground v.1.15,2013-03-04 19:30:00,
2013-03-04 12:35:00,66.3,20.1,30.28,WSW,248,23.0,23.0,17,0.00,,,0.00,Wunderground v.1.15,2013-03-04 19:35:00,
2013-03-04 12:40:00,66.7,20.5,30.28,SW,229,22.0,22.0,17,0.00,,,0.00,Wunderground v.1.15,2013-03-04 19:40:00,
2013-03-04 12:45:00,66.3,21.5,30.28,SW,236,22.0,28.0,18,0.00,,,0.00,Wunderground v.1.15,2013-03-04 19:45:00,
2013-03-04 12:50:00,66.5,21.6,30.28,WSW,253,22.0,25.0,18,0.00,,,0.00,Wunderground v.1.15,2013-03-04 19:50:00,
2013-03-04 12:55:00,67.4,21.0,30.28,WSW,252,21.0,29.0,17,0.00,,,0.00,Wunderground v.1.15,2013-03-04 19:55:00,
2013-03-04 13:00:00,67.1,20.8,30.28,SW,217,22.0,22.0,17,0.00,,,0.00,Wunderground v.1.15,2013-03-04 20:00:00,
2013-03-04 13:10:00,67.8,21.4,30.28,West,265,18.0,22.0,17,0.00,,,0.00,Wunderground v.1.15,2013-03-04 20:10:00,
2013-03-04 13:20:00,67.7,22.6,30.28,SW,221,22.0,22.0,18,0.00,,,0.00,Wunderground v.1.15,2013-03-04 20:20:00,
2013-03-04 13:25:00,68.3,23.1,30.28,SW,232,20.0,27.0,18,0.00,,,0.00,Wunderground v.1.15,2013-03-04 20:25:00,
2013-03-04 13:30:00,68.1,23.0,30.28,WSW,238,19.0,19.0,18,0.00,,,0.00,Wunderground v.1.15,2013-03-04 20:30:00,
2013-03-04 13:35:00,68.5,23.3,30.28,SW,236,19.0,19.0,18,0.00,,,0.00,Wunderground v.1.15,2013-03-04 20:35:00,
2013-03-04 13:40:00,67.7,22.6,30.28,WSW,246,20.0,20.0,18,0.00,,,0.00,Wunderground v.1.15,2013-03-04 20:40:00,
2013-03-04 13:45:00,66.9,22.0,30.28,West,272,19.0,20.0,18,0.00,,,0.00,Wunderground v.1.15,2013-03-04 20:45:00,
2013-03-04 13:50:00,67.7,22.6,30.28,SW,232,19.0,20.0,18,0.00,,,0.00,Wunderground v.1.15,2013-03-04 20:50:00,
2013-03-04 13:55:00,68.1,23.0,30.28,SW,236,17.0,20.0,18,0.00,,,0.00,Wunderground v.1.15,2013-03-04 20:55:00,
2013-03-04 14:00:00,68.0,22.9,30.28,SW,227,18.0,18.0,18,0.00,,,0.00,Wunderground v.1.15,2013-03-04 21:00:00,
2013-03-04 14:10:00,67.5,22.5,30.28,WSW,253,22.0,22.0,18,0.00,,,0.00,Wunderground v.1.15,2013-03-04 21:10:00,
2013-03-04 14:15:00,67.5,22.5,30.28,WSW,252,21.0,26.0,18,0.00,,,0.00,Wunderground v.1.15,2013-03-04 21:15:00,
2013-03-04 14:25:00,67.5,23.7,30.28,WSW,254,21.0,31.0,19,0.00,,,0.00,Wunderground v.1.15,2013-03-04 21:25:00,
2013-03-04 14:30:00,67.6,23.8,30.28,WSW,244,22.0,22.0,19,0.00,,,0.00,Wunderground v.1.15,2013-03-04 21:30:00,
2013-03-04 14:35:00,66.9,23.3,30.28,WSW,250,25.0,26.0,19,0.00,,,0.00,Wunderground v.1.15,2013-03-04 21:35:00,
2013-03-04 14:40:00,67.0,24.6,30.28,West,273,27.0,27.0,20,0.00,,,0.00,Wunderground v.1.15,2013-03-04 21:40:00,
2013-03-04 14:45:00,67.0,24.6,30.28,WSW,242,25.0,27.0,20,0.00,,,0.00,Wunderground v.1.15,2013-03-04 21:45:00,
2013-03-04 14:50:00,67.1,24.6,30.28,SW,228,22.0,22.0,20,0.00,,,0.00,Wunderground v.1.15,2013-03-04 21:50:00,
2013-03-04 14:55:00,66.7,24.3,30.28,SW,231,23.0,23.0,20,0.00,,,0.00,Wunderground v.1.15,2013-03-04 21:55:00,
2013-03-04 15:00:00,66.7,24.3,30.28,WSW,252,26.0,32.0,20,0.00,,,0.00,Wunderground v.1.15,2013-03-04 22:00:00,
2013-03-04 15:10:00,66.4,25.2,30.28,WSW,244,28.0,31.0,21,0.00,,,0.00,Wunderground v.1.15,2013-03-04 22:10:00,
2013-03-04 15:15:00,66.2,25.1,30.28,SW,227,27.0,31.0,21,0.00,,,0.00,Wunderground v.1.15,2013-03-04 22:15:00,
2013-03-04 15:20:00,66.2,25.1,30.28,WSW,258,25.0,25.0,21,0.00,,,0.00,Wunderground v.1.15,2013-03-04 22:20:00,
2013-03-04 15:25:00,66.0,26.0,30.28,WSW,249,23.0,28.0,22,0.00,,,0.00,Wunderground v.1.15,2013-03-04 22:25:00,
2013-03-04 15:30:00,65.6,26.8,30.28,SW,234,23.0,23.0,23,0.00,,,0.00,Wunderground v.1.15,2013-03-04 22:30:00,
2013-03-04 15:35:00,65.9,25.9,30.28,WSW,252,23.0,24.0,22,0.00,,,0.00,Wunderground v.1.15,2013-03-04 22:35:00,
2013-03-04 15:40:00,65.7,25.8,30.28,WSW,252,23.0,23.0,22,0.00,,,0.00,Wunderground v.1.15,2013-03-04 22:40:00,
2013-03-04 15:45:00,65.1,26.3,30.28,WSW,246,21.0,25.0,23,0.00,,,0.00,Wunderground v.1.15,2013-03-04 22:45:00,
2013-03-04 15:50:00,65.3,25.4,30.28,WSW,237,23.0,23.0,22,0.00,,,0.00,Wunderground v.1.15,2013-03-04 22:50:00,
2013-03-04 15:55:00,65.8,26.9,30.28,WSW,248,23.0,23.0,23,0.00,,,0.00,Wunderground v.1.15,2013-03-04 22:55:00,
2013-03-04 16:00:00,65.9,27.0,30.28,WSW,244,19.0,19.0,23,0.00,,,0.00,Wunderground v.1.15,2013-03-04 23:00:00,
2013-03-04 16:10:00,64.6,27.0,30.28,SW,236,22.0,23.0,24,0.00,,,0.00,Wunderground v.1.15,2013-03-04 23:10:00,
2013-03-04 16:15:00,64.7,27.0,30.28,WSW,242,24.0,27.0,24,0.00,,,0.00,Wunderground v.1.15,2013-03-04 23:15:00,
2013-03-04 16:25:00,65.2,27.5,30.28,WSW,248,21.0,27.0,24,0.00,,,0.00,Wunderground v.1.15,2013-03-04 23:25:00,
2013-03-04 16:30:00,64.6,27.9,30.28,SSW,211,23.0,23.0,25,0.00,,,0.00,Wunderground v.1.15,2013-03-04 23:30:00,
2013-03-04 16:35:00,64.4,27.8,30.28,SW,228,23.0,23.0,25,0.00,,,0.00,Wunderground v.1.15,2013-03-04 23:35:00,
2013-03-04 16:40:00,63.4,26.9,30.28,SW,233,23.0,25.0,25,0.00,,,0.00,Wunderground v.1.15,2013-03-04 23:40:00,
2013-03-04 16:45:00,63.2,26.8,30.28,WSW,242,23.0,25.0,25,0.00,,,0.00,Wunderground v.1.15,2013-03-04 23:45:00,
2013-03-04 16:50:00,63.8,27.3,30.28,WSW,241,21.0,25.0,25,0.00,,,0.00,Wunderground v.1.15,2013-03-04 23:50:00,
2013-03-04 17:00:00,63.6,27.1,30.28,WSW,245,18.0,18.0,25,0.00,,,0.00,Wunderground v.1.15,2013-03-05 00:00:00,
2013-03-04 17:10:00,62.7,26.3,30.28,WSW,239,17.0,17.0,25,0.00,,,0.00,Wunderground v.1.15,2013-03-05 00:10:00,
2013-03-04 17:15:00,62.9,26.5,30.28,SW,232,16.0,18.0,25,0.00,,,0.00,Wunderground v.1.15,2013-03-05 00:15:00,
2013-03-04 17:20:00,63.0,26.6,30.28,WSW,256,15.0,16.0,25,0.00,,,0.00,Wunderground v.1.15,2013-03-05 00:20:00,
2013-03-04 17:25:00,62.7,26.3,30.28,WSW,245,16.0,16.0,25,0.00,,,0.00,Wunderground v.1.15,2013-03-05 00:25:00,
2013-03-04 17:30:00,62.3,26.0,30.28,WSW,244,16.0,20.0,25,0.00,,,0.00,Wunderground v.1.15,2013-03-05 00:30:00,
2013-03-04 17:35:00,61.8,26.5,30.28,WSW,248,17.0,20.0,26,0.00,,,0.00,Wunderground v.1.15,2013-03-05 00:35:00,
2013-03-04 17:40:00,61.6,26.3,30.28,WSW,250,16.0,16.0,26,0.00,,,0.00,Wunderground v.1.15,2013-03-05 00:40:00,
2013-03-04 17:45:00,61.4,27.1,30.28,WSW,252,14.0,16.0,27,0.00,,,0.00,Wunderground v.1.15,2013-03-05 00:45:00,
2013-03-04 17:50:00,61.0,26.7,30.28,WSW,244,12.0,12.0,27,0.00,,,0.00,Wunderground v.1.15,2013-03-05 00:50:00,
2013-03-04 17:55:00,60.5,26.3,30.28,West,264,14.0,14.0,27,0.00,,,0.00,Wunderground v.1.15,2013-03-05 00:55:00,
2013-03-04 18:00:00,59.8,26.6,30.28,SW,226,13.0,13.0,28,0.00,,,0.00,Wunderground v.1.15,2013-03-05 01:00:00,
2013-03-04 18:10:00,59.2,26.1,30.28,SSW,210,9.0,9.0,28,0.00,,,0.00,Wunderground v.1.15,2013-03-05 01:10:00,
2013-03-04 18:15:00,58.9,25.8,30.28,WSW,249,6.0,9.0,28,0.00,,,0.00,Wunderground v.1.15,2013-03-05 01:15:00,
2013-03-04 18:25:00,58.7,25.6,30.28,WSW,251,9.0,14.0,28,0.00,,,0.00,Wunderground v.1.15,2013-03-05 01:25:00,
2013-03-04 18:30:00,58.4,25.4,30.28,WSW,251,9.0,14.0,28,0.00,,,0.00,Wunderground v.1.15,2013-03-05 01:30:00,
2013-03-04 18:35:00,58.2,25.2,30.28,West,264,9.0,14.0,28,0.00,,,0.00,Wunderground v.1.15,2013-03-05 01:35:00,
2013-03-04 18:40:00,58.1,25.1,30.28,West,269,9.0,9.0,28,0.00,,,0.00,Wunderground v.1.15,2013-03-05 01:40:00,
2013-03-04 18:45:00,57.7,24.8,30.28,WSW,247,7.0,9.0,28,0.00,,,0.00,Wunderground v.1.15,2013-03-05 01:45:00,
2013-03-04 18:50:00,57.1,25.1,30.28,SW,236,5.0,5.0,29,0.00,,,0.00,Wunderground v.1.15,2013-03-05 01:50:00,
2013-03-04 18:55:00,55.9,24.1,30.28,WSW,239,4.0,5.0,29,0.00,,,0.00,Wunderground v.1.15,2013-03-05 01:55:00,
2013-03-04 19:00:00,55.5,23.7,30.28,WSW,243,5.0,5.0,29,0.00,,,0.00,Wunderground v.1.15,2013-03-05 02:00:00,
2013-03-04 19:10:00,55.7,23.1,30.28,SW,236,6.0,7.0,28,0.00,,,0.00,Wunderground v.1.15,2013-03-05 02:10:00,
2013-03-04 19:15:00,55.2,22.6,30.28,SW,227,7.0,7.0,28,0.00,,,0.00,Wunderground v.1.15,2013-03-05 02:15:00,
2013-03-04 19:20:00,53.9,22.3,30.28,SW,221,6.0,6.0,29,0.00,,,0.00,Wunderground v.1.15,2013-03-05 02:20:00,
2013-03-04 19:25:00,53.3,21.8,30.28,SW,224,5.0,6.0,29,0.00,,,0.00,Wunderground v.1.15,2013-03-05 02:25:00,
2013-03-04 19:30:00,53.0,22.4,30.28,WNW,296,4.0,4.0,30,0.00,,,0.00,Wunderground v.1.15,2013-03-05 02:30:00,
2013-03-04 19:35:00,52.4,21.8,30.28,WNW,282,1.0,4.0,30,0.00,,,0.00,Wunderground v.1.15,2013-03-05 02:35:00,
2013-03-04 19:40:00,52.2,21.7,30.28,SSW,209,1.0,4.0,30,0.00,,,0.00,Wunderground v.1.15,2013-03-05 02:40:00,
2013-03-04 19:50:00,51.1,20.7,30.28,WSW,247,5.0,5.0,30,0.00,,,0.00,Wunderground v.1.15,2013-03-05 02:50:00,
2013-03-04 19:55:00,50.8,21.2,30.28,WSW,254,4.0,5.0,31,0.00,,,0.00,Wunderground v.1.15,2013-03-05 02:55:00,
2013-03-04 20:00:00,51.6,21.1,30.28,WSW,255,4.0,4.0,30,0.00,,,0.00,Wunderground v.1.15,2013-03-05 03:00:00,
2013-03-04 20:10:00,49.9,20.4,30.28,SW,228,3.0,4.0,31,0.00,,,0.00,Wunderground v.1.15,2013-03-05 03:10:00,
2013-03-04 20:20:00,47.6,20.6,30.28,SW,229,1.0,1.0,34,0.00,,,0.00,Wunderground v.1.15,2013-03-05 03:20:00,
2013-03-04 20:25:00,47.1,20.1,30.28,NW,306,1.0,3.0,34,0.00,,,0.00,Wunderground v.1.15,2013-03-05 03:25:00,
2013-03-04 20:30:00,46.7,21.8,30.28,West,281,3.0,3.0,37,0.00,,,0.00,Wunderground v.1.15,2013-03-05 03:30:00,
2013-03-04 20:35:00,47.8,20.8,30.28,West,276,4.0,4.0,34,0.00,,,0.00,Wunderground v.1.15,2013-03-05 03:35:00,
2013-03-04 20:40:00,48.6,20.8,30.28,West,262,4.0,5.0,33,0.00,,,0.00,Wunderground v.1.15,2013-03-05 03:40:00,
2013-03-04 20:50:00,48.1,20.3,30.28,WSW,250,5.0,5.0,33,0.00,,,0.00,Wunderground v.1.15,2013-03-05 03:50:00,
2013-03-04 20:55:00,46.4,20.2,30.28,WSW,249,4.0,5.0,35,0.00,,,0.00,Wunderground v.1.15,2013-03-05 03:55:00,
2013-03-04 21:00:00,44.8,20.1,30.28,WSW,242,4.0,5.0,37,0.00,,,0.00,Wunderground v.1.15,2013-03-05 04:00:00,
2013-03-04 21:10:00,44.2,20.8,30.28,SW,234,5.0,6.0,39,0.00,,,0.00,Wunderground v.1.15,2013-03-05 04:10:00,
2013-03-04 21:15:00,43.8,20.4,30.28,SW,232,6.0,7.0,39,0.00,,,0.00,Wunderground v.1.15,2013-03-05 04:15:00,
2013-03-04 21:25:00,43.1,21.0,30.28,SW,234,6.0,7.0,41,0.00,,,0.00,Wunderground v.1.15,2013-03-05 04:25:00,
2013-03-04 21:30:00,43.4,21.8,30.28,SW,234,5.0,5.0,42,0.00,,,0.00,Wunderground v.1.15,2013-03-05 04:30:00,
2013-03-04 21:35:00,43.6,22.0,30.28,SW,231,5.0,5.0,42,0.00,,,0.00,Wunderground v.1.15,2013-03-05 04:35:00,
2013-03-04 21:40:00,43.2,21.6,30.28,SSW,205,5.0,5.0,42,0.00,,,0.00,Wunderground v.1.15,2013-03-05 04:40:00,
2013-03-04 21:45:00,42.9,21.9,30.28,SSW,199,5.0,5.0,43,0.00,,,0.00,Wunderground v.1.15,2013-03-05 04:45:00,
2013-03-04 21:50:00,43.3,22.3,30.28,SSW,196,6.0,6.0,43,0.00,,,0.00,Wunderground v.1.15,2013-03-05 04:50:00,
2013-03-04 21:55:00,43.7,22.6,30.28,SSW,210,6.0,6.0,43,0.00,,,0.00,Wunderground v.1.15,2013-03-05 04:55:00,
2013-03-04 22:00:00,43.4,22.4,30.28,SW,229,6.0,6.0,43,0.00,,,0.00,Wunderground v.1.15,2013-03-05 05:00:00,
2013-03-04 22:05:00,42.6,22.2,30.28,SW,233,5.0,6.0,44,0.00,,,0.00,Wunderground v.1.15,2013-03-05 05:05:00,
2013-03-04 22:10:00,41.8,22.5,30.28,SW,235,5.0,6.0,46,0.00,,,0.00,Wunderground v.1.15,2013-03-05 05:10:00,
2013-03-04 22:15:00,41.4,23.2,30.28,SW,230,5.0,6.0,48,0.00,,,0.00,Wunderground v.1.15,2013-03-05 05:15:00,
2013-03-04 22:20:00,41.7,23.4,30.28,SSW,200,4.0,5.0,48,0.00,,,0.00,Wunderground v.1.15,2013-03-05 05:20:00,
2013-03-04 22:25:00,41.7,22.9,30.28,SSW,193,5.0,7.0,47,0.00,,,0.00,Wunderground v.1.15,2013-03-05 05:25:00,
2013-03-04 22:30:00,41.9,24.1,30.28,SSW,200,6.0,6.0,49,0.00,,,0.00,Wunderground v.1.15,2013-03-05 05:30:00,
2013-03-04 22:35:00,42.7,24.4,30.28,SSW,209,6.0,6.0,48,0.00,,,0.00,Wunderground v.1.15,2013-03-05 05:35:00,
2013-03-04 22:40:00,42.0,23.7,30.28,SW,216,6.0,6.0,48,0.00,,,0.00,Wunderground v.1.15,2013-03-05 05:40:00,
2013-03-04 22:45:00,41.1,23.4,30.28,SW,216,5.0,6.0,49,0.00,,,0.00,Wunderground v.1.15,2013-03-05 05:45:00,
2013-03-04 22:50:00,40.5,22.8,30.28,SW,214,5.0,5.0,49,0.00,,,0.00,Wunderground v.1.15,2013-03-05 05:50:00,
2013-03-04 23:00:00,39.7,22.6,30.28,SSW,205,4.0,5.0,50,0.00,,,0.00,Wunderground v.1.15,2013-03-05 06:00:00,
2013-03-04 23:10:00,39.7,22.6,30.28,SSW,210,4.0,4.0,50,0.00,,,0.00,Wunderground v.1.15,2013-03-05 06:10:00,
2013-03-04 23:15:00,40.0,22.8,30.28,SSW,210,3.0,4.0,50,0.00,,,0.00,Wunderground v.1.15,2013-03-05 06:15:00,
2013-03-04 23:20:00,39.7,22.1,30.28,East,96,1.0,1.0,49,0.00,,,0.00,Wunderground v.1.15,2013-03-05 06:20:00,
2013-03-04 23:25:00,39.7,22.6,30.28,East,96,0.0,1.0,50,0.00,,,0.00,Wunderground v.1.15,2013-03-05 06:25:00,
2013-03-04 23:30:00,40.0,22.8,30.28,East,96,0.0,0.0,50,0.00,,,0.00,Wunderground v.1.15,2013-03-05 06:30:00,
2013-03-04 23:35:00,40.9,23.2,30.28,East,96,0.0,0.0,49,0.00,,,0.00,Wunderground v.1.15,2013-03-05 06:35:00,
2013-03-04 23:40:00,40.7,23.0,30.28,East,96,0.0,0.0,49,0.00,,,0.00,Wunderground v.1.15,2013-03-05 06:40:00,
2013-03-04 23:45:00,40.2,22.5,30.28,East,96,0.0,0.0,49,0.00,,,0.00,Wunderground v.1.15,2013-03-05 06:45:00,
2013-03-04 23:50:00,39.6,22.5,30.28,East,96,0.0,0.0,50,0.00,,,0.00,Wunderground v.1.15,2013-03-05 06:50:00,
2013-03-04 23:55:00,38.6,22.0,30.28,East,96,0.0,0.0,51,0.00,,,0.00,Wunderground v.1.15,2013-03-05 06:55:00,